KD4PYR Weather Reports


time (UTC)temp
F
wind
direction
speed
knots
gust
knots
rain 1hr
in
rain 24hr
in
rain mn
in
humidity
%
barometer
mb
20260507154836 55 277 5.2 10.4 0.00 0.00 0.00 44 1013.5
20260507153829 54 300 5.2 10.4 0.00 0.00 0.00 47 1013.7
20260507152823 53 294 7.8 13.0 0.00 0.00 0.00 46 1013.5
20260507151816 53 307 3.5 9.6 0.00 0.00 0.00 48 1013.4
20260507150833 53 296 7.0 10.4 0.00 0.00 0.00 48 1013.2
20260507145833 52 335 3.5 7.8 0.00 0.00 0.00 51 1013.4
20260507144816 52 291 3.5 8.7 0.00 0.00 0.00 51 1013.5
20260507143834 51 282 3.5 8.7 0.00 0.00 0.00 52 1013.5
20260507142825 51 282 4.3 10.4 0.00 0.00 0.00 51 1013.5
20260507141844 50 360 6.1 11.3 0.00 0.00 0.00 51 1013.5
20260507140839 50 298 3.5 9.6 0.00 0.00 0.00 50 1013.6
20260507135822 50 334 3.5 9.6 0.00 0.00 0.00 51 1013.7
20260507134827 49 334 3.5 11.3 0.00 0.00 0.00 51 1013.6
20260507133905 49 302 5.2 10.4 0.00 0.00 0.00 51 1013.5
20260507132833 49 348 3.5 11.3 0.00 0.00 0.00 55 1013.5
20260507131824 48 287 1.7 7.0 0.00 0.00 0.00 62 1013.6
20260507130841 47 294 3.5 7.0 0.00 0.00 0.00 63 1013.6
20260507125845 47 312 2.6 7.0 0.00 0.00 0.00 67 1013.5
20260507124846 46 323 1.7 4.3 0.00 0.00 0.00 69 1013.4
20260507123837 45 327 0.9 4.3 0.00 0.00 0.00 72 1013.5
20260507122826 45 317 1.7 4.3 0.00 0.00 0.00 73 1013.6
20260507121843 44 355 0.9 5.2 0.00 0.00 0.00 75 1013.7
20260507120835 43 335 1.7 4.3 0.00 0.00 0.00 76 1013.7
20260507115822 43 331 0.9 4.3 0.00 0.00 0.00 77 1013.5
20260507114826 42 278 1.7 3.5 0.00 0.00 0.00 78 1013.7
20260507113845 42 288 1.7 2.6 0.00 0.00 0.00 79 1013.7
20260507112836 42 288 0.9 2.6 0.00 0.00 0.00 80 1013.7
20260507111830 41 289 1.7 2.6 0.00 0.00 0.00 80 1013.5
20260507110848 41 289 0.9 2.6 0.00 0.00 0.00 80 1013.3
20260507105833 41 289 0.9 1.7 0.00 0.00 0.00 80 1013.1
20260507104901 41 289 0.0 0.9 0.00 0.00 0.00 80 1012.9
20260507103832 41 289 0.0 1.7 0.00 0.00 0.00 80 1012.9
20260507102825 41 289 0.0 0.9 0.00 0.00 0.00 80 1012.9
20260507101843 41 289 0.0 1.7 0.00 0.00 0.00 80 1013.0
20260507100901 42 289 0.9 1.7 0.00 0.00 0.00 80 1012.9
20260507095826 42 289 0.9 2.6 0.00 0.01 0.00 80 1012.9
20260507094851 42 289 0.9 3.5 0.00 0.01 0.00 80 1012.9
20260507093824 42 299 1.7 3.5 0.00 0.01 0.00 80 1012.9
20260507092843 42 271 1.7 3.5 0.00 0.01 0.00 80 1012.9
20260507091836 42 281 1.7 3.5 0.00 0.01 0.00 80 1012.8
20260507090853 42 283 0.9 3.5 0.00 0.01 0.00 81 1012.7
20260507085815 42 281 0.9 2.6 0.00 0.06 0.00 81 1012.7
20260507084838 42 281 0.9 2.6 0.00 0.06 0.00 82 1012.6
20260507083831 42 284 0.0 0.9 0.00 0.06 0.00 82 1012.6
20260507082847 41 284 0.0 0.0 0.00 0.06 0.00 82 1012.4
20260507081839 41 284 0.0 0.9 0.00 0.06 0.00 82 1012.4
20260507080830 41 284 0.0 0.9 0.00 0.06 0.00 82 1012.4
20260507075833 41 284 0.0 0.0 0.00 0.16 0.00 82 1012.5
20260507074838 42 284 0.0 0.0 0.00 0.16 0.00 81 1012.4
20260507073829 42 284 0.0 0.0 0.00 0.16 0.00 81 1012.4
20260507072822 42 284 0.0 0.0 0.00 0.16 0.00 81 1012.4
20260507071902 42 284 0.0 0.0 0.00 0.16 0.00 80 1012.5
20260507070900 43 284 0.0 0.0 0.00 0.16 0.00 80 1012.5
20260507065851 44 284 0.0 0.9 0.00 0.27 0.00 80 1012.5
20260507064831 44 284 0.0 0.9 0.00 0.27 0.00 80 1012.4
20260507063823 44 284 0.0 0.9 0.00 0.27 0.00 80 1012.5
20260507062844 44 284 0.9 1.7 0.00 0.27 0.00 81 1012.6
20260507061839 43 284 0.9 1.7 0.00 0.27 0.00 81 1012.6
20260507060829 43 284 0.0 0.9 0.00 0.27 0.00 82 1012.6
20260507055814 43 284 0.0 0.0 0.00 0.36 0.00 82 1012.6
20260507054838 44 284 0.0 0.0 0.00 0.36 0.00 82 1012.6
20260507053831 44 284 0.0 0.0 0.00 0.36 0.00 82 1012.6
20260507052827 44 283 0.0 0.0 0.00 0.36 0.00 82 1012.7
20260507051901 43 284 0.0 0.0 0.00 0.36 0.00 81 1012.7
20260507050836 44 284 0.0 0.0 0.00 0.36 0.00 81 1012.5
20260507045840 44 284 0.0 0.0 0.00 0.43 0.00 82 1012.7
20260507044842 44 284 0.0 0.0 0.00 0.43 0.00 81 1012.6
20260507043814 45 284 0.0 0.0 0.00 0.43 0.00 81 1012.7
20260507042831 45 284 0.0 0.0 0.00 0.43 0.00 81 1012.8
20260507041852 45 284 0.0 0.0 0.00 0.43 0.00 81 1012.7
20260507040849 45 284 0.0 0.0 0.00 0.43 0.00 81 1012.8
20260507035848 45 284 0.0 0.0 0.00 0.50 0.43 80 1012.7
20260507034830 45 284 0.0 0.0 0.00 0.50 0.43 80 1012.6
20260507033847 46 283 0.0 0.0 0.00 0.50 0.43 80 1012.6
20260507032816 46 284 0.0 0.0 0.00 0.50 0.43 80 1012.8
20260507031854 47 284 0.0 0.0 0.00 0.50 0.43 79 1012.7
20260507030824 47 284 0.0 0.0 0.00 0.50 0.43 79 1012.8
20260507025829 47 283 0.0 0.0 0.00 0.61 0.43 78 1012.7
20260507024853 47 284 0.0 0.0 0.00 0.61 0.43 78 1012.7
20260507023823 48 284 0.0 0.0 0.00 0.61 0.43 77 1012.7
20260507022816 48 284 0.0 0.0 0.00 0.61 0.43 77 1012.5
20260507021836 49 284 0.0 0.0 0.00 0.61 0.43 77 1012.6
20260507020827 49 283 0.0 0.0 0.00 0.61 0.43 76 1012.4
20260507015831 50 284 0.0 0.0 0.00 0.66 0.43 74 1012.4
20260507014835 51 284 0.0 0.0 0.00 0.66 0.43 73 1012.3
20260507013828 51 284 0.0 0.0 0.00 0.66 0.43 71 1012.2
20260507012907 52 284 0.0 0.0 0.00 0.66 0.43 70 1012.3
20260507011835 53 284 0.0 0.0 0.00 0.66 0.43 68 1012.0
20260507010828 54 283 0.0 1.7 0.00 0.66 0.43 63 1011.9
20260507005831 54 284 0.9 2.6 0.00 0.66 0.43 62 1011.8
20260507004834 54 283 0.9 2.6 0.00 0.66 0.43 60 1011.8
20260507003829 55 300 1.7 4.3 0.00 0.66 0.43 59 1011.7
20260507002849 55 296 0.9 7.0 0.00 0.66 0.43 59 1011.8
20260507001842 56 337 1.7 4.3 0.00 0.66 0.43 59 1011.6
20260507000832 56 333 2.6 5.2 0.00 0.66 0.43 58 1011.6
20260506235817 56 318 1.7 6.1 0.00 0.68 0.43 60 1011.5
20260506234900 56 284 2.6 7.8 0.00 0.68 0.43 58 1011.4
20260506233830 56 342 3.5 7.0 0.00 0.68 0.43 58 1011.2
20260506232850 56 303 3.5 7.0 0.00 0.68 0.43 58 1011.1
20260506231839 57 278 0.9 7.8 0.00 0.68 0.43 57 1011.2
20260506230834 57 355 1.7 5.2 0.00 0.68 0.43 56 1010.9
20260506225818 57 325 2.6 7.0 0.00 0.74 0.43 56 1010.6
20260506224824 57 311 1.7 5.2 0.00 0.74 0.43 56 1010.7
20260506223816 57 314 2.6 7.8 0.00 0.74 0.43 56 1010.9
20260506222856 57 338 1.7 7.0 0.00 0.74 0.43 54 1011.0
20260506221853 58 346 2.6 7.8 0.00 0.74 0.43 53 1011.1
20260506220823 58 342 0.0 7.8 0.00 0.74 0.43 55 1011.0
20260506215828 58 283 2.6 7.0 0.00 0.87 0.43 53 1011.2
20260506214853 58 320 3.5 6.1 0.00 0.87 0.43 54 1011.3
20260506213825 59 325 1.7 7.0 0.00 0.87 0.43 52 1011.2
20260506212844 59 335 1.7 5.2 0.00 0.87 0.43 52 1011.2
20260506211839 59 294 3.5 6.1 0.00 0.87 0.43 49 1011.1
20260506210832 59 304 3.5 8.7 0.00 0.87 0.43 49 1011.1
20260506205816 59 290 4.3 9.6 0.00 1.06 0.43 50 1011.0
20260506204840 59 339 3.5 7.0 0.00 1.06 0.43 52 1010.9
20260506203900 60 315 2.6 7.8 0.00 1.06 0.43 55 1010.7
20260506202832 59 321 4.3 8.7 0.00 1.06 0.43 56 1010.9
20260506201825 59 5 3.5 7.0 0.00 1.06 0.43 55 1010.9
20260506200842 59 360 1.7 8.7 0.00 1.06 0.43 56 1010.9
20260506195826 59 289 4.3 9.6 0.00 1.24 0.43 56 1010.9
20260506194850 59 12 3.5 7.0 0.00 1.24 0.43 54 1010.9
20260506193848 59 327 2.6 7.0 0.00 1.24 0.43 54 1010.9
20260506192847 61 300 2.6 5.2 0.00 1.24 0.43 51 1011.0
20260506191839 61 311 2.6 5.2 0.00 1.24 0.43 51 1010.7
20260506190830 61 289 3.5 7.8 0.00 1.24 0.43 51 1010.5
20260506185834 61 5 0.9 7.0 0.00 1.24 0.43 54 1010.4
20260506184818 59 281 1.7 7.8 0.00 1.24 0.43 56 1010.5
20260506183838 59 307 2.6 11.3 0.00 1.24 0.43 55 1010.6
20260506182831 60 292 6.1 11.3 0.00 1.24 0.43 52 1010.6
20260506181910 60 299 3.5 7.8 0.00 1.24 0.43 56 1010.5
20260506180840 59 326 2.6 11.3 0.00 1.24 0.43 56 1010.5
20260506175827 60 10 3.5 8.7 0.00 1.24 0.43 55 1010.6
20260506174831 59 355 1.7 10.4 0.00 1.24 0.43 56 1010.9
20260506173848 58 309 0.9 5.2 0.00 1.24 0.43 61 1010.9
20260506172839 57 355 4.3 8.7 0.00 1.24 0.43 58 1011.0
20260506171831 57 304 2.6 10.4 0.00 1.24 0.43 59 1011.1
20260506170851 56 5 4.3 7.0 0.00 1.24 0.43 62 1011.1
20260506165835 55 282 2.6 9.6 0.00 1.24 0.43 62 1011.3
20260506164858 56 293 4.3 8.7 0.00 1.24 0.43 63 1011.4
20260506163827 55 327 2.6 9.6 0.00 1.24 0.43 64 1011.3
20260506162846 55 339 5.2 10.4 0.00 1.24 0.43 63 1011.3
20260506161839 54 5 5.2 8.7 0.00 1.24 0.43 65 1011.4
20260506160815 54 334 2.6 8.7 0.00 1.24 0.43 67 1011.2